Time,TemperatureF,DewpointF,PressureIn,WindDirection,WindDirectionDegrees,WindSpeedMPH,WindSpeedGustMPH,Humidity,HourlyPrecipIn,Conditions,Clouds,dailyrainin,SoftwareType,DateUTC
2013-01-26 00:01:00,39.5,36.8,29.91,ENE,67,1.0,4.0,90,0.00,,---,0.00,VWS V14.01,2013-01-26 08:01:00,
2013-01-26 00:06:00,39.3,36.9,29.91,ENE,72,1.0,7.0,91,0.00,,---,0.00,VWS V14.01,2013-01-26 08:06:00,
2013-01-26 00:11:00,39.3,36.9,29.90,SE,130,0.0,7.0,91,0.00,,---,0.00,VWS V14.01,2013-01-26 08:11:00,
2013-01-26 00:16:00,39.3,36.9,29.90,ENE,76,1.0,4.0,91,0.00,,---,0.00,VWS V14.01,2013-01-26 08:16:00,
2013-01-26 00:21:00,39.4,37.0,29.90,East,86,3.0,7.0,91,0.00,,---,0.00,VWS V14.01,2013-01-26 08:21:00,
2013-01-26 00:26:00,39.4,37.0,29.90,ENE,67,2.0,7.0,91,0.00,,---,0.00,VWS V14.01,2013-01-26 08:26:00,
2013-01-26 00:31:00,39.3,36.9,29.89,East,86,5.0,5.0,91,0.00,,---,0.00,VWS V14.01,2013-01-26 08:31:00,
2013-01-26 00:36:00,39.3,36.9,29.89,ENE,69,2.0,5.0,91,0.00,,---,0.00,VWS V14.01,2013-01-26 08:36:00,
2013-01-26 00:41:00,39.7,36.7,29.89,NE,44,2.0,7.0,89,0.00,,---,0.00,VWS V14.01,2013-01-26 08:41:00,
2013-01-26 00:46:00,39.9,36.6,29.89,ESE,113,1.0,4.0,88,0.00,,---,0.00,VWS V14.01,2013-01-26 08:46:00,
2013-01-26 00:51:00,40.1,36.8,29.89,East,85,1.0,5.0,88,0.00,,---,0.00,VWS V14.01,2013-01-26 08:51:00,
2013-01-26 00:56:00,40.3,36.8,29.89,NE,42,1.0,5.0,87,0.00,,---,0.00,VWS V14.01,2013-01-26 08:56:00,
2013-01-26 01:01:00,40.4,36.8,29.89,North,11,2.0,2.0,87,0.00,,---,0.00,VWS V14.01,2013-01-26 09:01:00,
2013-01-26 01:06:00,40.2,36.7,29.89,ENE,69,1.0,7.0,87,0.00,,---,0.00,VWS V14.01,2013-01-26 09:06:00,
2013-01-26 01:11:00,39.9,36.9,29.89,ENE,77,5.0,7.0,89,0.00,,---,0.00,VWS V14.01,2013-01-26 09:11:00,
2013-01-26 01:16:00,39.6,36.9,29.89,East,90,1.0,4.0,90,0.00,,---,0.00,VWS V14.01,2013-01-26 09:16:00,
2013-01-26 01:21:00,39.5,37.1,29.89,ESE,110,2.0,5.0,91,0.00,,---,0.00,VWS V14.01,2013-01-26 09:21:00,
2013-01-26 01:26:00,39.3,36.9,29.89,SSE,162,0.0,7.0,91,0.00,,---,0.00,VWS V14.01,2013-01-26 09:26:00,
2013-01-26 01:31:00,39.3,36.9,29.89,SSW,202,0.0,2.0,91,0.00,,---,0.00,VWS V14.01,2013-01-26 09:31:00,
2013-01-26 01:36:00,39.5,37.1,29.89,ESE,120,1.0,5.0,91,0.00,,---,0.00,VWS V14.01,2013-01-26 09:36:00,
2013-01-26 01:41:00,39.5,37.1,29.89,East,82,0.0,5.0,91,0.00,,---,0.00,VWS V14.01,2013-01-26 09:41:00,
2013-01-26 01:46:00,39.6,37.2,29.89,East,94,0.0,4.0,91,0.00,,---,0.00,VWS V14.01,2013-01-26 09:46:00,
2013-01-26 01:51:00,39.5,37.1,29.89,ESE,120,1.0,5.0,91,0.00,,---,0.00,VWS V14.01,2013-01-26 09:51:00,
2013-01-26 01:56:00,39.5,37.1,29.90,NE,36,7.0,7.0,91,0.00,,---,0.00,VWS V14.01,2013-01-26 09:56:00,
2013-01-26 02:01:00,39.6,37.2,29.89,East,101,1.0,1.0,91,0.00,,---,0.00,VWS V14.01,2013-01-26 10:01:00,
2013-01-26 02:06:00,39.7,37.3,29.90,NNW,332,0.0,3.0,91,0.00,,---,0.00,VWS V14.01,2013-01-26 10:06:00,
2013-01-26 02:11:00,39.7,37.3,29.90,South,171,0.0,5.0,91,0.00,,---,0.00,VWS V14.01,2013-01-26 10:11:00,
2013-01-26 02:16:00,39.7,37.3,29.90,East,100,0.0,1.0,91,0.00,,---,0.00,VWS V14.01,2013-01-26 10:16:00,
2013-01-26 02:21:00,39.7,37.3,29.90,East,88,0.0,3.0,91,0.00,,---,0.00,VWS V14.01,2013-01-26 10:21:00,
2013-01-26 02:26:00,39.7,37.3,29.90,East,86,0.0,4.0,91,0.00,,---,0.00,VWS V14.01,2013-01-26 10:26:00,
2013-01-26 02:31:00,39.7,37.6,29.90,East,98,2.0,2.0,92,0.00,,---,0.00,VWS V14.01,2013-01-26 10:31:00,
2013-01-26 02:36:00,39.6,37.5,29.90,ENE,67,5.0,5.0,92,0.00,,---,0.00,VWS V14.01,2013-01-26 10:36:00,
2013-01-26 02:41:00,39.7,37.6,29.90,ESE,118,0.0,5.0,92,0.00,,---,0.00,VWS V14.01,2013-01-26 10:41:00,
2013-01-26 02:46:00,39.6,37.5,29.90,ESE,119,0.0,0.0,92,0.00,,---,0.00,VWS V14.01,2013-01-26 10:46:00,
2013-01-26 02:51:00,39.7,37.6,29.90,ESE,121,0.0,3.0,92,0.00,,---,0.00,VWS V14.01,2013-01-26 10:51:00,
2013-01-26 02:56:00,39.7,37.6,29.89,ESE,120,0.0,3.0,92,0.00,,---,0.00,VWS V14.01,2013-01-26 10:56:00,
2013-01-26 03:01:00,39.7,37.6,29.89,SE,142,0.0,1.0,92,0.00,,---,0.00,VWS V14.01,2013-01-26 11:01:00,
2013-01-26 03:06:00,39.9,37.8,29.90,NNE,32,0.0,3.0,92,0.00,,---,0.00,VWS V14.01,2013-01-26 11:06:00,
2013-01-26 03:11:00,40.1,38.0,29.89,SSE,168,0.0,5.0,92,0.00,,---,0.00,VWS V14.01,2013-01-26 11:11:00,
2013-01-26 03:16:00,40.2,38.1,29.89,SE,134,0.0,0.0,92,0.00,,---,0.00,VWS V14.01,2013-01-26 11:16:00,
2013-01-26 03:21:00,40.3,38.2,29.89,NNW,336,0.0,2.0,92,0.00,,---,0.00,VWS V14.01,2013-01-26 11:21:00,
2013-01-26 03:26:00,40.3,38.2,29.89,SW,234,0.0,2.0,92,0.00,,---,0.00,VWS V14.01,2013-01-26 11:26:00,
2013-01-26 03:31:00,40.2,38.1,29.89,SSW,196,0.0,0.0,92,0.00,,---,0.00,VWS V14.01,2013-01-26 11:31:00,
2013-01-26 03:36:00,40.1,38.2,29.89,SE,138,0.0,3.0,93,0.00,,---,0.00,VWS V14.01,2013-01-26 11:36:00,
2013-01-26 03:41:00,40.1,38.2,29.89,South,186,0.0,3.0,93,0.00,,---,0.00,VWS V14.01,2013-01-26 11:41:00,
2013-01-26 03:46:00,40.0,38.1,29.89,NE,56,0.0,0.0,93,0.00,,---,0.00,VWS V14.01,2013-01-26 11:46:00,
2013-01-26 03:51:00,39.9,38.3,29.89,East,96,0.0,2.0,94,0.00,,---,0.00,VWS V14.01,2013-01-26 11:51:00,
2013-01-26 03:56:00,39.8,38.2,29.89,East,96,0.0,2.0,94,0.01,,---,0.01,VWS V14.01,2013-01-26 11:56:00,
2013-01-26 04:01:00,39.7,38.1,29.89,East,88,0.0,0.0,94,0.01,,---,0.01,VWS V14.01,2013-01-26 12:01:00,
2013-01-26 04:06:00,39.7,38.1,29.89,ENE,61,0.0,0.0,94,0.01,,---,0.01,VWS V14.01,2013-01-26 12:06:00,
2013-01-26 04:11:00,39.6,38.3,29.89,West,259,0.0,4.0,95,0.01,,---,0.01,VWS V14.01,2013-01-26 12:11:00,
2013-01-26 04:16:00,39.6,38.3,29.89,East,98,0.0,1.0,95,0.01,,---,0.01,VWS V14.01,2013-01-26 12:16:00,
2013-01-26 04:21:00,39.5,38.2,29.89,NW,307,0.0,1.0,95,0.02,,---,0.02,VWS V14.01,2013-01-26 12:21:00,
2013-01-26 04:26:00,39.5,38.2,29.89,NW,323,0.0,1.0,95,0.02,,---,0.02,VWS V14.01,2013-01-26 12:26:00,
2013-01-26 04:31:00,39.5,38.2,29.89,ENE,60,0.0,0.0,95,0.02,,---,0.02,VWS V14.01,2013-01-26 12:31:00,
2013-01-26 04:36:00,39.5,38.2,29.89,SE,138,0.0,1.0,95,0.02,,---,0.02,VWS V14.01,2013-01-26 12:36:00,
2013-01-26 04:41:00,39.4,38.1,29.89,WNW,282,0.0,5.0,95,0.02,,---,0.02,VWS V14.01,2013-01-26 12:41:00,
2013-01-26 04:46:00,39.4,38.1,29.89,SSW,209,0.0,0.0,95,0.02,,---,0.02,VWS V14.01,2013-01-26 12:46:00,
2013-01-26 04:51:00,39.4,38.1,29.89,SW,218,0.0,0.0,95,0.03,,---,0.03,VWS V14.01,2013-01-26 12:51:00,
2013-01-26 04:56:00,39.3,38.3,29.89,SE,144,0.0,0.0,96,0.03,,---,0.03,VWS V14.01,2013-01-26 12:56:00,
2013-01-26 05:01:00,39.3,38.3,29.88,SSE,167,0.0,0.0,96,0.02,,---,0.03,VWS V14.01,2013-01-26 13:01:00,
2013-01-26 05:06:00,39.3,38.0,29.88,SSW,199,0.0,0.0,95,0.02,,---,0.03,VWS V14.01,2013-01-26 13:06:00,
2013-01-26 05:11:00,39.2,37.9,29.88,ESE,117,0.0,0.0,95,0.02,,---,0.03,VWS V14.01,2013-01-26 13:11:00,
2013-01-26 05:16:00,39.2,38.2,29.88,NNE,28,0.0,0.0,96,0.02,,---,0.03,VWS V14.01,2013-01-26 13:16:00,
2013-01-26 05:21:00,39.2,38.2,29.88,ENE,68,2.0,2.0,96,0.03,,---,0.04,VWS V14.01,2013-01-26 13:21:00,
2013-01-26 05:26:00,39.2,38.2,29.88,SE,124,0.0,2.0,96,0.03,,---,0.04,VWS V14.01,2013-01-26 13:26:00,
2013-01-26 05:31:00,39.2,38.2,29.88,WSW,238,0.0,0.0,96,0.02,,---,0.04,VWS V14.01,2013-01-26 13:31:00,
2013-01-26 05:36:00,39.2,38.2,29.88,ESE,109,0.0,0.0,96,0.02,,---,0.04,VWS V14.01,2013-01-26 13:36:00,
2013-01-26 05:41:00,39.2,38.2,29.88,SE,126,0.0,0.0,96,0.02,,---,0.04,VWS V14.01,2013-01-26 13:41:00,
2013-01-26 05:46:00,39.2,38.2,29.88,SSW,200,0.0,1.0,96,0.02,,---,0.04,VWS V14.01,2013-01-26 13:46:00,
2013-01-26 05:51:00,39.3,38.3,29.88,ESE,121,0.0,2.0,96,0.03,,---,0.05,VWS V14.01,2013-01-26 13:51:00,
2013-01-26 05:56:00,39.3,38.3,29.88,SSE,150,2.0,6.0,96,0.03,,---,0.05,VWS V14.01,2013-01-26 13:56:00,
2013-01-26 06:01:00,39.2,38.2,29.88,South,188,0.0,0.0,96,0.02,,---,0.05,VWS V14.01,2013-01-26 14:01:00,
2013-01-26 06:06:00,39.1,37.8,29.88,SSE,164,1.0,3.0,95,0.03,,---,0.06,VWS V14.01,2013-01-26 14:06:00,
2013-01-26 06:11:00,38.9,37.6,29.88,ESE,105,0.0,5.0,95,0.03,,---,0.06,VWS V14.01,2013-01-26 14:11:00,
2013-01-26 06:16:00,38.8,37.5,29.87,West,277,0.0,2.0,95,0.03,,---,0.06,VWS V14.01,2013-01-26 14:16:00,
2013-01-26 06:21:00,38.8,37.5,29.88,SW,226,4.0,5.0,95,0.03,,---,0.06,VWS V14.01,2013-01-26 14:21:00,
2013-01-26 06:26:00,38.7,37.4,29.88,WNW,298,0.0,5.0,95,0.03,,---,0.06,VWS V14.01,2013-01-26 14:26:00,
2013-01-26 06:31:00,38.7,37.4,29.88,ESE,117,5.0,5.0,95,0.02,,---,0.06,VWS V14.01,2013-01-26 14:31:00,
2013-01-26 06:36:00,38.7,37.4,29.88,ESE,117,0.0,5.0,95,0.02,,---,0.06,VWS V14.01,2013-01-26 14:36:00,
2013-01-26 06:41:00,38.6,37.3,29.88,East,89,0.0,5.0,95,0.02,,---,0.06,VWS V14.01,2013-01-26 14:41:00,
2013-01-26 06:46:00,38.6,37.3,29.88,South,170,0.0,0.0,95,0.02,,---,0.06,VWS V14.01,2013-01-26 14:46:00,
2013-01-26 06:51:00,38.5,37.2,29.88,SSW,197,0.0,2.0,95,0.02,,---,0.06,VWS V14.01,2013-01-26 14:51:00,
2013-01-26 06:56:00,38.5,37.2,29.88,ESE,113,0.0,6.0,95,0.02,,---,0.06,VWS V14.01,2013-01-26 14:56:00,
2013-01-26 07:01:00,38.5,37.2,29.88,SE,126,0.0,0.0,95,0.01,,---,0.06,VWS V14.01,2013-01-26 15:01:00,
2013-01-26 07:06:00,38.4,37.1,29.88,South,176,0.0,3.0,95,0.01,,---,0.06,VWS V14.01,2013-01-26 15:06:00,
2013-01-26 07:11:00,38.5,37.2,29.88,East,101,0.0,3.0,95,0.01,,---,0.06,VWS V14.01,2013-01-26 15:11:00,
2013-01-26 07:16:00,38.5,37.2,29.88,ESE,107,8.0,8.0,95,0.00,,---,0.06,VWS V14.01,2013-01-26 15:16:00,
2013-01-26 07:21:00,38.6,37.3,29.88,West,262,0.0,8.0,95,0.00,,---,0.06,VWS V14.01,2013-01-26 15:21:00,
2013-01-26 07:26:00,38.6,37.3,29.88,NNE,32,0.0,8.0,95,0.00,,---,0.06,VWS V14.01,2013-01-26 15:26:00,
2013-01-26 07:31:00,38.5,37.2,29.88,ESE,106,0.0,2.0,95,0.00,,---,0.06,VWS V14.01,2013-01-26 15:31:00,
2013-01-26 07:36:00,38.4,37.1,29.88,SSW,200,5.0,8.0,95,0.00,,---,0.06,VWS V14.01,2013-01-26 15:36:00,
2013-01-26 07:41:00,38.3,37.0,29.88,SE,144,0.0,8.0,95,0.00,,---,0.06,VWS V14.01,2013-01-26 15:41:00,
2013-01-26 07:46:00,38.3,37.0,29.88,SSE,159,1.0,3.0,95,0.00,,---,0.06,VWS V14.01,2013-01-26 15:46:00,
2013-01-26 07:51:00,38.2,36.9,29.88,ENE,65,3.0,7.0,95,0.00,,---,0.06,VWS V14.01,2013-01-26 15:51:00,
2013-01-26 07:56:00,38.1,36.8,29.88,SSE,159,1.0,7.0,95,0.00,,---,0.06,VWS V14.01,2013-01-26 15:56:00,
2013-01-26 08:01:00,38.0,36.7,29.88,ESE,107,3.0,3.0,95,0.00,,---,0.06,VWS V14.01,2013-01-26 16:01:00,
2013-01-26 08:06:00,37.9,36.6,29.89,ESE,108,3.0,6.0,95,0.00,,---,0.06,VWS V14.01,2013-01-26 16:06:00,
2013-01-26 08:11:00,37.7,36.4,29.89,South,180,1.0,6.0,95,0.00,,---,0.06,VWS V14.01,2013-01-26 16:11:00,
2013-01-26 08:16:00,37.7,36.4,29.89,West,273,3.0,3.0,95,0.00,,---,0.06,VWS V14.01,2013-01-26 16:16:00,
2013-01-26 08:21:00,37.6,36.0,29.89,SSE,167,0.0,5.0,94,0.00,,---,0.06,VWS V14.01,2013-01-26 16:21:00,
2013-01-26 08:26:00,37.5,35.9,29.89,ENE,77,0.0,5.0,94,0.00,,---,0.06,VWS V14.01,2013-01-26 16:26:00,
2013-01-26 08:31:00,37.5,35.9,29.89,SSE,153,2.0,2.0,94,0.00,,---,0.06,VWS V14.01,2013-01-26 16:31:00,
2013-01-26 08:36:00,37.4,35.8,29.90,SSW,211,0.0,3.0,94,0.00,,---,0.06,VWS V14.01,2013-01-26 16:36:00,
2013-01-26 08:41:00,37.4,35.8,29.89,SW,232,2.0,6.0,94,0.00,,---,0.06,VWS V14.01,2013-01-26 16:41:00,
2013-01-26 08:46:00,37.5,35.9,29.90,SSW,205,0.0,2.0,94,0.00,,---,0.06,VWS V14.01,2013-01-26 16:46:00,
2013-01-26 08:51:00,37.5,35.9,29.90,SW,234,3.0,4.0,94,0.00,,---,0.06,VWS V14.01,2013-01-26 16:51:00,
2013-01-26 08:56:00,37.5,35.9,29.90,SE,135,5.0,7.0,94,0.00,,---,0.06,VWS V14.01,2013-01-26 16:56:00,
2013-01-26 09:01:00,37.5,35.9,29.90,South,186,0.0,2.0,94,0.00,,---,0.06,VWS V14.01,2013-01-26 17:01:00,
2013-01-26 09:06:00,37.5,35.9,29.90,SE,132,1.0,6.0,94,0.00,,---,0.06,VWS V14.01,2013-01-26 17:06:00,
2013-01-26 09:11:00,37.5,35.9,29.90,WSW,256,2.0,6.0,94,0.00,,---,0.06,VWS V14.01,2013-01-26 17:11:00,
2013-01-26 09:16:00,37.5,35.9,29.90,West,280,1.0,2.0,94,0.00,,---,0.06,VWS V14.01,2013-01-26 17:16:00,
2013-01-26 09:21:00,37.5,35.9,29.90,SSW,200,0.0,4.0,94,0.00,,---,0.06,VWS V14.01,2013-01-26 17:21:00,
2013-01-26 09:26:00,37.5,35.9,29.91,WNW,292,0.0,4.0,94,0.00,,---,0.06,VWS V14.01,2013-01-26 17:26:00,
2013-01-26 09:31:00,37.5,35.9,29.91,ENE,75,0.0,0.0,94,0.00,,---,0.06,VWS V14.01,2013-01-26 17:31:00,
2013-01-26 09:36:00,37.6,36.0,29.91,SSW,201,3.0,3.0,94,0.00,,---,0.06,VWS V14.01,2013-01-26 17:36:00,
2013-01-26 09:41:00,37.6,36.3,29.91,SSE,159,0.0,4.0,95,0.00,,---,0.06,VWS V14.01,2013-01-26 17:41:00,
2013-01-26 09:46:00,37.7,36.4,29.91,WNW,294,0.0,3.0,95,0.00,,---,0.06,VWS V14.01,2013-01-26 17:46:00,
2013-01-26 09:51:00,37.9,36.6,29.91,NNE,29,0.0,3.0,95,0.00,,---,0.06,VWS V14.01,2013-01-26 17:51:00,
2013-01-26 09:56:00,38.0,36.7,29.92,West,278,0.0,4.0,95,0.00,,---,0.06,VWS V14.01,2013-01-26 17:56:00,
2013-01-26 10:01:00,38.2,36.9,29.92,West,275,3.0,3.0,95,0.00,,---,0.06,VWS V14.01,2013-01-26 18:01:00,
2013-01-26 10:06:00,38.3,37.0,29.92,SSW,199,1.0,4.0,95,0.00,,---,0.06,VWS V14.01,2013-01-26 18:06:00,
2013-01-26 10:11:00,38.4,37.1,29.92,WSW,237,3.0,7.0,95,0.00,,---,0.06,VWS V14.01,2013-01-26 18:11:00,
2013-01-26 10:16:00,38.5,37.2,29.92,SSE,159,0.0,1.0,95,0.00,,---,0.06,VWS V14.01,2013-01-26 18:16:00,
2013-01-26 10:21:00,38.6,37.0,29.92,SW,227,3.0,5.0,94,0.00,,---,0.06,VWS V14.01,2013-01-26 18:21:00,
2013-01-26 10:26:00,38.7,37.1,29.92,WSW,237,0.0,7.0,94,0.00,,---,0.06,VWS V14.01,2013-01-26 18:26:00,
2013-01-26 10:31:00,38.8,37.2,29.92,West,267,2.0,2.0,94,0.00,,---,0.06,VWS V14.01,2013-01-26 18:31:00,
2013-01-26 10:36:00,38.9,37.3,29.92,SSW,193,2.0,6.0,94,0.00,,---,0.06,VWS V14.01,2013-01-26 18:36:00,
2013-01-26 10:41:00,38.9,37.3,29.93,SW,226,3.0,6.0,94,0.00,,---,0.06,VWS V14.01,2013-01-26 18:41:00,
2013-01-26 10:46:00,38.9,37.3,29.93,SW,225,0.0,0.0,94,0.00,,---,0.06,VWS V14.01,2013-01-26 18:46:00,
2013-01-26 10:51:00,39.1,37.5,29.93,SW,223,0.0,1.0,94,0.00,,---,0.06,VWS V14.01,2013-01-26 18:51:00,
2013-01-26 10:56:00,39.2,37.6,29.93,SW,233,1.0,2.0,94,0.00,,---,0.06,VWS V14.01,2013-01-26 18:56:00,
2013-01-26 11:01:00,39.3,37.7,29.93,South,175,1.0,3.0,94,0.00,,---,0.06,VWS V14.01,2013-01-26 19:01:00,
2013-01-26 11:06:00,39.5,37.9,29.93,SE,126,0.0,3.0,94,0.00,,---,0.06,VWS V14.01,2013-01-26 19:06:00,
2013-01-26 11:11:00,39.6,38.0,29.93,South,182,0.0,3.0,94,0.00,,---,0.06,VWS V14.01,2013-01-26 19:11:00,
2013-01-26 11:16:00,39.7,37.8,29.93,SSW,209,0.0,1.0,93,0.00,,---,0.06,VWS V14.01,2013-01-26 19:16:00,
2013-01-26 11:21:00,39.7,37.8,29.93,SE,130,0.0,3.0,93,0.00,,---,0.06,VWS V14.01,2013-01-26 19:21:00,
2013-01-26 11:26:00,39.8,38.0,29.93,SSW,212,1.0,5.0,93,0.00,,---,0.06,VWS V14.01,2013-01-26 19:26:00,
2013-01-26 11:31:00,39.8,38.0,29.93,SSW,211,0.0,0.0,93,0.00,,---,0.06,VWS V14.01,2013-01-26 19:31:00,
2013-01-26 11:36:00,40.0,38.1,29.93,NNW,328,0.0,0.0,93,0.00,,---,0.06,VWS V14.01,2013-01-26 19:36:00,
2013-01-26 11:41:00,40.1,38.2,29.93,SW,223,0.0,3.0,93,0.00,,---,0.06,VWS V14.01,2013-01-26 19:41:00,
2013-01-26 11:46:00,40.2,38.3,29.93,SE,128,0.0,0.0,93,0.00,,---,0.06,VWS V14.01,2013-01-26 19:46:00,
2013-01-26 11:51:00,40.3,38.4,29.93,SW,227,0.0,0.0,93,0.00,,---,0.06,VWS V14.01,2013-01-26 19:51:00,
2013-01-26 11:56:00,40.4,38.5,29.93,SW,221,0.0,0.0,93,0.00,,---,0.06,VWS V14.01,2013-01-26 19:56:00,
2013-01-26 12:01:00,40.5,38.6,29.93,West,269,0.0,3.0,93,0.00,,---,0.06,VWS V14.01,2013-01-26 20:01:00,
2013-01-26 12:06:00,40.7,39.1,29.93,NW,317,0.0,3.0,94,0.00,,---,0.06,VWS V14.01,2013-01-26 20:06:00,
2013-01-26 12:11:00,40.8,38.7,29.93,SSW,213,0.0,3.0,92,0.00,,---,0.06,VWS V14.01,2013-01-26 20:11:00,
2013-01-26 12:16:00,40.9,38.8,29.93,West,281,0.0,0.0,92,0.00,,---,0.06,VWS V14.01,2013-01-26 20:16:00,
2013-01-26 12:21:00,40.9,38.5,29.93,SSW,213,1.0,3.0,91,0.00,,---,0.06,VWS V14.01,2013-01-26 20:21:00,
2013-01-26 12:26:00,40.8,38.7,29.93,SW,234,0.0,3.0,92,0.00,,---,0.06,VWS V14.01,2013-01-26 20:26:00,
2013-01-26 12:31:00,40.8,38.7,29.93,SW,218,0.0,0.0,92,0.00,,---,0.06,VWS V14.01,2013-01-26 20:31:00,
2013-01-26 12:36:00,40.8,38.7,29.93,WSW,241,0.0,0.0,92,0.00,,---,0.06,VWS V14.01,2013-01-26 20:36:00,
2013-01-26 12:41:00,40.8,38.7,29.93,SW,225,0.0,0.0,92,0.00,,---,0.06,VWS V14.01,2013-01-26 20:41:00,
2013-01-26 12:46:00,40.9,38.8,29.93,WSW,246,0.0,0.0,92,0.00,,---,0.06,VWS V14.01,2013-01-26 20:46:00,
2013-01-26 12:51:00,40.9,38.5,29.92,WSW,246,0.0,0.0,91,0.00,,---,0.06,VWS V14.01,2013-01-26 20:51:00,
2013-01-26 12:56:00,40.9,38.8,29.92,WSW,245,0.0,0.0,92,0.00,,---,0.06,VWS V14.01,2013-01-26 20:56:00,
2013-01-26 13:01:00,41.0,38.6,29.92,SW,234,0.0,0.0,91,0.00,,---,0.06,VWS V14.01,2013-01-26 21:01:00,
2013-01-26 13:06:00,41.0,38.6,29.92,SSW,197,0.0,0.0,91,0.00,,---,0.06,VWS V14.01,2013-01-26 21:06:00,
2013-01-26 13:11:00,41.1,38.7,29.93,SSW,200,0.0,0.0,91,0.00,,---,0.06,VWS V14.01,2013-01-26 21:11:00,
2013-01-26 13:16:00,41.1,38.7,29.93,SSW,200,0.0,0.0,91,0.00,,---,0.06,VWS V14.01,2013-01-26 21:16:00,
2013-01-26 13:21:00,41.1,38.7,29.93,SSW,200,0.0,0.0,91,0.00,,---,0.06,VWS V14.01,2013-01-26 21:21:00,
2013-01-26 13:26:00,41.2,38.8,29.92,West,269,0.0,0.0,91,0.00,,---,0.06,VWS V14.01,2013-01-26 21:26:00,
2013-01-26 13:31:00,41.3,38.9,29.93,West,269,0.0,0.0,91,0.00,,---,0.06,VWS V14.01,2013-01-26 21:31:00,
2013-01-26 13:36:00,41.4,39.0,29.92,West,269,0.0,0.0,91,0.00,,---,0.06,VWS V14.01,2013-01-26 21:36:00,
2013-01-26 13:41:00,41.5,39.1,29.92,West,269,0.0,0.0,91,0.00,,---,0.06,VWS V14.01,2013-01-26 21:41:00,
2013-01-26 13:46:00,41.4,39.0,29.93,West,279,0.0,0.0,91,0.00,,---,0.06,VWS V14.01,2013-01-26 21:46:00,
2013-01-26 13:51:00,41.4,38.7,29.92,West,279,0.0,0.0,90,0.00,,---,0.06,VWS V14.01,2013-01-26 21:51:00,
2013-01-26 13:56:00,41.4,39.0,29.92,West,279,0.0,0.0,91,0.00,,---,0.06,VWS V14.01,2013-01-26 21:56:00,
2013-01-26 14:01:00,41.4,39.0,29.93,West,279,0.0,0.0,91,0.00,,---,0.06,VWS V14.01,2013-01-26 22:01:00,
2013-01-26 14:06:00,41.4,39.0,29.92,West,279,0.0,0.0,91,0.00,,---,0.06,VWS V14.01,2013-01-26 22:06:00,
2013-01-26 14:11:00,41.4,39.0,29.93,West,279,0.0,0.0,91,0.00,,---,0.06,VWS V14.01,2013-01-26 22:11:00,
2013-01-26 14:16:00,41.4,39.0,29.92,West,279,0.0,0.0,91,0.00,,---,0.06,VWS V14.01,2013-01-26 22:16:00,
2013-01-26 14:21:00,41.5,39.1,29.93,West,279,0.0,0.0,91,0.00,,---,0.06,VWS V14.01,2013-01-26 22:21:00,
2013-01-26 14:26:00,41.5,39.1,29.92,West,279,0.0,0.0,91,0.00,,---,0.06,VWS V14.01,2013-01-26 22:26:00,
2013-01-26 14:31:00,41.6,39.2,29.92,West,279,0.0,0.0,91,0.00,,---,0.06,VWS V14.01,2013-01-26 22:31:00,
2013-01-26 14:36:00,41.7,39.3,29.93,West,279,0.0,0.0,91,0.00,,---,0.06,VWS V14.01,2013-01-26 22:36:00,
2013-01-26 14:41:00,41.7,39.3,29.93,West,279,0.0,0.0,91,0.00,,---,0.06,VWS V14.01,2013-01-26 22:41:00,
2013-01-26 14:46:00,41.7,39.5,29.93,West,279,0.0,0.0,92,0.00,,---,0.06,VWS V14.01,2013-01-26 22:46:00,
2013-01-26 14:51:00,41.6,39.5,29.93,West,279,0.0,0.0,92,0.00,,---,0.06,VWS V14.01,2013-01-26 22:51:00,
2013-01-26 14:56:00,41.6,39.5,29.93,West,279,0.0,0.0,92,0.00,,---,0.06,VWS V14.01,2013-01-26 22:56:00,
2013-01-26 15:01:00,41.7,39.5,29.93,West,279,0.0,0.0,92,0.00,,---,0.06,VWS V14.01,2013-01-26 23:01:00,
2013-01-26 15:06:00,41.8,39.9,29.93,West,279,0.0,0.0,93,0.00,,---,0.06,VWS V14.01,2013-01-26 23:06:00,
2013-01-26 15:11:00,41.9,39.8,29.93,West,279,0.0,0.0,92,0.00,,---,0.06,VWS V14.01,2013-01-26 23:11:00,
2013-01-26 15:16:00,41.8,39.9,29.93,NNE,26,0.0,0.0,93,0.01,,---,0.07,VWS V14.01,2013-01-26 23:16:00,
2013-01-26 15:21:00,41.8,39.9,29.93,ENE,74,0.0,0.0,93,0.02,,---,0.08,VWS V14.01,2013-01-26 23:21:00,
2013-01-26 15:26:00,41.7,40.1,29.93,ENE,74,0.0,0.0,94,0.02,,---,0.08,VWS V14.01,2013-01-26 23:26:00,
2013-01-26 15:31:00,41.6,40.0,29.94,ENE,74,0.0,0.0,94,0.02,,---,0.08,VWS V14.01,2013-01-26 23:31:00,
2013-01-26 15:36:00,41.5,39.9,29.94,East,88,0.0,0.0,94,0.02,,---,0.08,VWS V14.01,2013-01-26 23:36:00,
2013-01-26 15:41:00,41.5,39.9,29.94,East,88,0.0,0.0,94,0.02,,---,0.08,VWS V14.01,2013-01-26 23:41:00,
2013-01-26 15:46:00,41.6,40.0,29.94,East,88,0.0,0.0,94,0.02,,---,0.08,VWS V14.01,2013-01-26 23:46:00,
2013-01-26 15:51:00,41.7,40.1,29.93,East,88,0.0,0.0,94,0.02,,---,0.08,VWS V14.01,2013-01-26 23:51:00,
2013-01-26 15:56:00,41.6,40.0,29.94,South,185,0.0,0.0,94,0.02,,---,0.08,VWS V14.01,2013-01-26 23:56:00,
2013-01-26 16:01:00,41.6,40.0,29.94,South,185,0.0,0.0,94,0.02,,---,0.08,VWS V14.01,2013-01-27 00:01:00,
2013-01-26 16:06:00,41.6,40.0,29.93,SE,132,0.0,1.0,94,0.02,,---,0.08,VWS V14.01,2013-01-27 00:06:00,
2013-01-26 16:11:00,41.6,40.0,29.93,SE,132,0.0,1.0,94,0.02,,---,0.08,VWS V14.01,2013-01-27 00:11:00,
2013-01-26 16:16:00,41.6,40.0,29.94,SSW,192,0.0,0.0,94,0.01,,---,0.08,VWS V14.01,2013-01-27 00:16:00,
2013-01-26 16:21:00,41.6,40.0,29.94,NW,309,0.0,0.0,94,0.01,,---,0.08,VWS V14.01,2013-01-27 00:21:00,
2013-01-26 16:26:00,41.7,40.1,29.94,SW,230,0.0,3.0,94,0.01,,---,0.08,VWS V14.01,2013-01-27 00:26:00,
2013-01-26 16:31:00,41.7,39.8,29.94,West,274,0.0,0.0,93,0.00,,---,0.08,VWS V14.01,2013-01-27 00:31:00,
2013-01-26 16:36:00,41.7,39.8,29.94,West,274,0.0,1.0,93,0.00,,---,0.08,VWS V14.01,2013-01-27 00:36:00,
2013-01-26 16:41:00,41.6,39.7,29.94,West,274,0.0,1.0,93,0.00,,---,0.08,VWS V14.01,2013-01-27 00:41:00,
2013-01-26 16:46:00,41.6,39.7,29.94,SSW,205,0.0,0.0,93,0.00,,---,0.08,VWS V14.01,2013-01-27 00:46:00,
2013-01-26 16:51:00,41.6,39.7,29.95,SSW,205,0.0,0.0,93,0.00,,---,0.08,VWS V14.01,2013-01-27 00:51:00,
2013-01-26 16:56:00,41.6,39.7,29.95,SE,136,0.0,1.0,93,0.00,,---,0.08,VWS V14.01,2013-01-27 00:56:00,
2013-01-26 17:01:00,41.5,39.6,29.95,SE,136,0.0,0.0,93,0.00,,---,0.08,VWS V14.01,2013-01-27 01:01:00,
2013-01-26 17:06:00,41.5,39.6,29.95,SE,136,0.0,0.0,93,0.00,,---,0.08,VWS V14.01,2013-01-27 01:06:00,
2013-01-26 17:11:00,41.5,39.6,29.95,SE,136,0.0,0.0,93,0.00,,---,0.08,VWS V14.01,2013-01-27 01:11:00,
2013-01-26 17:16:00,41.4,39.8,29.95,SE,136,0.0,0.0,94,0.00,,---,0.08,VWS V14.01,2013-01-27 01:16:00,
2013-01-26 17:21:00,41.3,39.7,29.96,SE,136,0.0,0.0,94,0.00,,---,0.08,VWS V14.01,2013-01-27 01:21:00,
2013-01-26 17:26:00,41.3,39.7,29.96,SE,136,0.0,0.0,94,0.00,,---,0.08,VWS V14.01,2013-01-27 01:26:00,
2013-01-26 17:31:00,41.2,39.3,29.96,South,189,0.0,0.0,93,0.00,,---,0.08,VWS V14.01,2013-01-27 01:31:00,
2013-01-26 17:36:00,41.1,39.5,29.96,South,189,0.0,0.0,94,0.00,,---,0.08,VWS V14.01,2013-01-27 01:36:00,
2013-01-26 17:41:00,41.0,39.1,29.96,South,189,0.0,0.0,93,0.00,,---,0.08,VWS V14.01,2013-01-27 01:41:00,
2013-01-26 17:45:00,40.9,39.0,29.96,ENE,72,0.0,1.0,93,0.00,,---,0.08,VWS V14.01,2013-01-27 01:45:00,
2013-01-26 17:50:00,40.8,38.9,29.97,ENE,72,0.0,1.0,93,0.00,,---,0.08,VWS V14.01,2013-01-27 01:50:00,
2013-01-26 17:55:00,40.7,38.6,29.97,ENE,72,0.0,1.0,92,0.00,,---,0.08,VWS V14.01,2013-01-27 01:55:00,
2013-01-26 18:00:00,40.6,38.5,29.97,ENE,72,0.0,0.0,92,0.00,,---,0.08,VWS V14.01,2013-01-27 02:00:00,
2013-01-26 18:05:00,40.5,38.4,29.97,SSW,204,0.0,0.0,92,0.00,,---,0.08,VWS V14.01,2013-01-27 02:05:00,
2013-01-26 18:10:00,40.5,38.4,29.97,SSW,204,0.0,0.0,92,0.00,,---,0.08,VWS V14.01,2013-01-27 02:10:00,
2013-01-26 18:15:00,40.4,38.3,29.97,South,180,0.0,0.0,92,0.00,,---,0.08,VWS V14.01,2013-01-27 02:15:00,
2013-01-26 18:20:00,40.4,38.3,29.97,South,180,0.0,0.0,92,0.00,,---,0.08,VWS V14.01,2013-01-27 02:20:00,
2013-01-26 18:25:00,40.3,38.2,29.98,SW,217,0.0,0.0,92,0.00,,---,0.08,VWS V14.01,2013-01-27 02:25:00,
2013-01-26 18:30:00,40.2,38.3,29.98,SW,236,0.0,0.0,93,0.00,,---,0.08,VWS V14.01,2013-01-27 02:30:00,
2013-01-26 18:35:00,40.2,38.3,29.98,West,279,0.0,0.0,93,0.00,,---,0.08,VWS V14.01,2013-01-27 02:35:00,
2013-01-26 18:40:00,40.1,38.2,29.98,SSW,197,0.0,1.0,93,0.00,,---,0.08,VWS V14.01,2013-01-27 02:40:00,
2013-01-26 18:45:00,40.0,38.1,29.98,SSW,194,0.0,0.0,93,0.00,,---,0.08,VWS V14.01,2013-01-27 02:45:00,
2013-01-26 18:50:00,39.9,38.0,29.98,SSW,194,0.0,0.0,93,0.00,,---,0.08,VWS V14.01,2013-01-27 02:50:00,
2013-01-26 18:55:00,39.8,38.0,29.98,SSW,194,0.0,0.0,93,0.00,,---,0.08,VWS V14.01,2013-01-27 02:55:00,
2013-01-26 19:00:00,39.7,37.8,29.98,South,191,0.0,0.0,93,0.00,,---,0.08,VWS V14.01,2013-01-27 03:00:00,
2013-01-26 19:05:00,39.7,37.8,29.99,WSW,249,0.0,0.0,93,0.00,,---,0.08,VWS V14.01,2013-01-27 03:05:00,
2013-01-26 19:10:00,39.6,37.8,29.99,WSW,249,0.0,0.0,93,0.00,,---,0.08,VWS V14.01,2013-01-27 03:10:00,
2013-01-26 19:15:00,39.6,37.8,29.99,WSW,249,0.0,0.0,93,0.00,,---,0.08,VWS V14.01,2013-01-27 03:15:00,
2013-01-26 19:20:00,39.5,37.7,29.99,WSW,249,0.0,0.0,93,0.00,,---,0.08,VWS V14.01,2013-01-27 03:20:00,
2013-01-26 19:25:00,39.5,37.7,29.99,WSW,249,0.0,0.0,93,0.00,,---,0.08,VWS V14.01,2013-01-27 03:25:00,
2013-01-26 19:30:00,39.5,37.7,29.99,WSW,249,0.0,0.0,93,0.00,,---,0.08,VWS V14.01,2013-01-27 03:30:00,
2013-01-26 19:35:00,39.5,37.7,29.99,WSW,249,0.0,0.0,93,0.00,,---,0.08,VWS V14.01,2013-01-27 03:35:00,
2013-01-26 19:40:00,39.4,37.5,29.99,WSW,249,0.0,0.0,93,0.00,,---,0.08,VWS V14.01,2013-01-27 03:40:00,
2013-01-26 19:45:00,39.4,37.5,29.99,WSW,249,0.0,0.0,93,0.00,,---,0.08,VWS V14.01,2013-01-27 03:45:00,
2013-01-26 19:50:00,39.4,37.5,29.99,WSW,249,0.0,0.0,93,0.00,,---,0.08,VWS V14.01,2013-01-27 03:50:00,
2013-01-26 19:55:00,39.4,37.5,29.99,WSW,249,0.0,0.0,93,0.00,,---,0.08,VWS V14.01,2013-01-27 03:55:00,
2013-01-26 20:00:00,39.4,37.5,29.99,WSW,249,0.0,0.0,93,0.00,,---,0.08,VWS V14.01,2013-01-27 04:00:00,
2013-01-26 20:05:00,39.4,37.5,29.99,WSW,249,0.0,0.0,93,0.00,,---,0.08,VWS V14.01,2013-01-27 04:05:00,
2013-01-26 20:10:00,39.3,37.5,30.00,WSW,249,0.0,0.0,93,0.00,,---,0.08,VWS V14.01,2013-01-27 04:10:00,
2013-01-26 20:15:00,39.3,37.5,30.00,West,276,0.0,0.0,93,0.00,,---,0.08,VWS V14.01,2013-01-27 04:15:00,
2013-01-26 20:20:00,39.3,37.7,30.00,West,277,0.0,0.0,94,0.00,,---,0.08,VWS V14.01,2013-01-27 04:20:00,
2013-01-26 20:25:00,39.2,37.6,30.00,West,277,0.0,0.0,94,0.00,,---,0.08,VWS V14.01,2013-01-27 04:25:00,
2013-01-26 20:30:00,39.2,37.6,30.00,WSW,240,0.0,0.0,94,0.00,,---,0.08,VWS V14.01,2013-01-27 04:30:00,
2013-01-26 20:35:00,39.1,37.5,30.00,WSW,238,0.0,0.0,94,0.00,,---,0.08,VWS V14.01,2013-01-27 04:35:00,
2013-01-26 20:40:00,39.2,37.6,30.00,WSW,238,0.0,0.0,94,0.00,,---,0.08,VWS V14.01,2013-01-27 04:40:00,
2013-01-26 20:45:00,39.2,37.6,30.00,WSW,238,0.0,0.0,94,0.00,,---,0.08,VWS V14.01,2013-01-27 04:45:00,
2013-01-26 20:50:00,39.1,37.5,30.00,WSW,238,0.0,0.0,94,0.00,,---,0.08,VWS V14.01,2013-01-27 04:50:00,
2013-01-26 20:55:00,39.1,37.5,30.00,WSW,238,0.0,0.0,94,0.00,,---,0.08,VWS V14.01,2013-01-27 04:55:00,
2013-01-26 21:00:00,39.1,37.5,30.00,WSW,238,0.0,0.0,94,0.00,,---,0.08,VWS V14.01,2013-01-27 05:00:00,
2013-01-26 21:01:00,39.1,37.5,30.00,WSW,238,0.0,0.0,94,0.00,,---,0.08,VWS V14.01,2013-01-27 05:01:00,
2013-01-26 21:06:00,39.1,37.5,30.00,WSW,238,0.0,0.0,94,0.00,,---,0.08,VWS V14.01,2013-01-27 05:06:00,
2013-01-26 21:11:00,39.1,37.5,30.01,WSW,238,0.0,0.0,94,0.00,,---,0.08,VWS V14.01,2013-01-27 05:11:00,
2013-01-26 21:16:00,39.1,37.5,30.01,WSW,238,0.0,0.0,94,0.00,,---,0.08,VWS V14.01,2013-01-27 05:16:00,
2013-01-26 21:21:00,39.1,37.5,30.01,ENE,76,0.0,0.0,94,0.00,,---,0.08,VWS V14.01,2013-01-27 05:21:00,
2013-01-26 21:26:00,39.1,37.5,30.01,ENE,76,0.0,0.0,94,0.00,,---,0.08,VWS V14.01,2013-01-27 05:26:00,
2013-01-26 21:31:00,39.1,37.5,30.01,ENE,76,0.0,0.0,94,0.00,,---,0.08,VWS V14.01,2013-01-27 05:31:00,
2013-01-26 21:36:00,39.2,37.6,30.01,SW,219,0.0,0.0,94,0.00,,---,0.08,VWS V14.01,2013-01-27 05:36:00,
2013-01-26 21:41:00,39.1,37.5,30.01,SW,219,0.0,0.0,94,0.00,,---,0.08,VWS V14.01,2013-01-27 05:41:00,
2013-01-26 21:46:00,39.2,37.6,30.01,SSW,203,0.0,0.0,94,0.00,,---,0.08,VWS V14.01,2013-01-27 05:46:00,
2013-01-26 21:51:00,39.2,37.6,30.01,SSW,203,0.0,0.0,94,0.00,,---,0.08,VWS V14.01,2013-01-27 05:51:00,
2013-01-26 21:56:00,39.1,37.5,30.01,SSW,202,0.0,0.0,94,0.00,,---,0.08,VWS V14.01,2013-01-27 05:56:00,
2013-01-26 22:01:00,39.1,37.5,30.01,SSW,202,0.0,0.0,94,0.00,,---,0.08,VWS V14.01,2013-01-27 06:01:00,
2013-01-26 22:06:00,39.2,37.6,30.01,SSE,160,0.0,0.0,94,0.00,,---,0.08,VWS V14.01,2013-01-27 06:06:00,
2013-01-26 22:11:00,39.1,37.5,30.01,WSW,238,0.0,0.0,94,0.00,,---,0.08,VWS V14.01,2013-01-27 06:11:00,
2013-01-26 22:16:00,39.2,37.6,30.02,SW,221,0.0,0.0,94,0.00,,---,0.08,VWS V14.01,2013-01-27 06:16:00,
2013-01-26 22:21:00,39.1,37.5,30.02,WSW,248,0.0,0.0,94,0.00,,---,0.08,VWS V14.01,2013-01-27 06:21:00,
2013-01-26 22:26:00,39.1,37.5,30.02,West,272,0.0,0.0,94,0.00,,---,0.08,VWS V14.01,2013-01-27 06:26:00,
2013-01-26 22:31:00,39.1,37.5,30.02,West,272,0.0,0.0,94,0.00,,---,0.08,VWS V14.01,2013-01-27 06:31:00,
2013-01-26 22:36:00,38.9,37.3,30.02,SW,215,0.0,0.0,94,0.00,,---,0.08,VWS V14.01,2013-01-27 06:36:00,
2013-01-26 22:41:00,38.8,37.2,30.02,SW,215,0.0,0.0,94,0.00,,---,0.08,VWS V14.01,2013-01-27 06:41:00,
2013-01-26 22:46:00,38.7,37.1,30.02,SW,215,0.0,0.0,94,0.00,,---,0.08,VWS V14.01,2013-01-27 06:46:00,
2013-01-26 22:51:00,38.4,36.8,30.03,SW,215,0.0,0.0,94,0.00,,---,0.08,VWS V14.01,2013-01-27 06:51:00,
2013-01-26 22:56:00,38.3,37.0,30.03,SW,215,0.0,0.0,95,0.00,,---,0.08,VWS V14.01,2013-01-27 06:56:00,
2013-01-26 23:01:00,38.2,36.9,30.03,SW,215,0.0,0.0,95,0.00,,---,0.08,VWS V14.01,2013-01-27 07:01:00,
2013-01-26 23:06:00,37.9,36.3,30.03,SW,215,0.0,0.0,94,0.00,,---,0.08,VWS V14.01,2013-01-27 07:06:00,
2013-01-26 23:13:00,37.6,36.3,30.03,SW,215,0.0,0.0,95,0.00,,---,0.08,VWS V14.01,2013-01-27 07:13:00,
2013-01-26 23:18:00,37.4,36.1,30.03,SW,215,0.0,0.0,95,0.00,,---,0.08,VWS V14.01,2013-01-27 07:18:00,
2013-01-26 23:23:00,37.3,36.0,30.03,SW,215,0.0,0.0,95,0.00,,---,0.08,VWS V14.01,2013-01-27 07:23:00,
2013-01-26 23:28:00,37.2,35.9,30.04,SW,215,0.0,0.0,95,0.00,,---,0.08,VWS V14.01,2013-01-27 07:28:00,
2013-01-26 23:33:00,37.1,36.1,30.04,SW,215,0.0,0.0,96,0.00,,---,0.08,VWS V14.01,2013-01-27 07:33:00,
2013-01-26 23:38:00,37.1,36.1,30.04,SW,215,0.0,0.0,96,0.00,,---,0.08,VWS V14.01,2013-01-27 07:38:00,
2013-01-26 23:43:00,37.2,36.2,30.04,SW,215,0.0,0.0,96,0.00,,---,0.08,VWS V14.01,2013-01-27 07:43:00,
2013-01-26 23:48:00,37.2,36.2,30.04,SW,215,0.0,0.0,96,0.00,,---,0.08,VWS V14.01,2013-01-27 07:48:00,
2013-01-26 23:53:00,37.2,36.2,30.04,SW,215,0.0,0.0,96,0.00,,---,0.08,VWS V14.01,2013-01-27 07:53:00,
2013-01-26 23:58:00,37.4,36.4,30.04,SW,215,0.0,0.0,96,0.00,,---,0.08,VWS V14.01,2013-01-27 07:58:00,